sat.trackr.live / text

‹ back to catalog

STARLINK-4592

NORAD 53634 · 2022-104AY

PAYLOAD ACTIVE UNKNOWN

§ Identity

Operator
Country
US
Launch date
2022-08-28
Launch site
AFETR
Launch vehicle
Mass (kg)
RCS (m²)

Purposes: comms

External: N2YO · Heavens-Above · Gunter

§ Orbital elements

Epoch: 2026-09-20T22:00:03.000096Z

Period
93.85 min
Inclination
53.1599°
Eccentricity
0.0001199
Mean motion
15.34368555 rev/d
Perigee alt
462.0 km
Apogee alt
463.6 km
Semi-major
6,840.9 km
B*
1.4162e-3
RAAN
59.5619°
Arg perigee
81.2801°
Mean anomaly
318.7312°
Rev number
588

§ Raw data

STARLINK-45921 53634U 22104AY  26263.91670139  .00047730  00000+0  14162-2 0  99912 53634  53.1599  59.5619 0001199  81.2801 318.7312 15.34368555  5881

JSON: /api/v1/satellites/53634 · /tle

For live sub-satellite position, see the globe view (requires WebGL).

§ Visibility from observer

Set your observer location to see the next 7 days of passes ≥ 10°. The values pass through the URL so the page stays shareable.

No JS? Fill the form by hand. The geolocation button needs JavaScript.